[[[{"header":{"parameterUnit":"kt","parameterCategory":2,"dx":1,"dy":1,"la1":30.253999710083008,"la2":30.299108505249023,"lo1":-89.0895004272461,"lo2":-89.04439544677734,"nx":28,"ny":28,"refTime":"2022-10-12T21:00:00:Z","depth":0,"parameterNumber":1,"parameterNumberName":"U-component_of_WINDS"},"data":[2.7843,2.795,2.7971,2.8103,2.8145,2.8239,2.828,2.8336,2.8386,2.8502,2.8573,2.8607,2.8667,2.8759,2.8838,2.8852,2.8885,2.8905,2.8918,2.8803,2.8788,2.8774,2.875,2.8912,2.8912,2.9035,2.9036,2.9037,2.7753,2.7795,2.7871,2.796,2.8026,2.8018,2.8089,2.8145,2.823,2.8293,2.8365,2.847,2.8556,2.8611,2.8699,2.8751,2.8753,2.8773,2.877,2.8779,2.8656,2.863,2.8769,2.8769,2.8769,2.8769,2.8769,2.8769,2.7596,2.7659,2.7725,2.7809,2.786,2.7919,2.7984,2.8024,2.81,2.8194,2.8206,2.8304,2.8373,2.8491,2.8537,2.8615,2.8598,2.8627,2.8635,2.8642,2.8646,2.8464,2.8631,2.8631,2.863,2.863,2.863,0,2.7487,2.7501,2.7576,2.7657,2.772,2.7786,2.7851,2.7892,2.7931,2.7993,2.8084,2.8141,2.8254,2.8344,2.8432,2.8475,2.8476,2.8479,2.8499,2.8494,2.8477,2.8487,2.8285,2.8474,2.8473,2.8472,2.8471,2.8471,2.733,2.7402,2.7482,2.7532,2.7573,2.7654,2.7707,2.7736,2.7791,2.7876,2.7932,2.8022,2.8096,2.8241,2.829,2.8376,2.8378,2.8447,2.8391,2.8382,2.8379,2.8374,2.8382,2.8458,2.8459,2.8461,2.8462,0,2.7239,2.7275,2.7394,2.7468,2.7488,2.7563,2.7627,2.7693,2.7725,2.7821,2.7845,2.7897,2.7988,2.8026,2.8139,2.8156,2.8281,2.828,2.8256,2.8259,2.8324,2.8318,2.8533,2.8562,2.8394,2.8396,2.8397,0,2.7119,2.7213,2.7261,2.7329,2.7434,2.7461,2.7565,2.7603,2.7663,2.7739,2.7745,2.7816,2.7854,2.7931,2.7957,2.8066,2.8087,2.8107,2.8113,2.8107,2.8104,2.8138,2.813,2.8124,2.8123,2.8122,2.8121,0,2.6973,2.711,2.7219,2.7257,2.7346,2.7397,2.7437,2.7504,2.7557,2.7632,2.7666,2.7752,2.7799,2.7865,2.7898,2.7858,2.8032,2.7985,2.8053,2.8052,2.809,2.8088,2.8267,2.8119,2.8119,2.8119,2.8118,0,2.6882,2.6955,2.7109,2.7183,2.7218,2.7291,2.7376,2.7447,2.7518,2.7539,2.7598,2.7608,2.7706,2.7656,2.7792,2.7731,2.7777,2.7805,2.7811,2.7823,2.7766,2.7862,2.8029,2.8048,2.7832,2.783,2.7828,0,2.6705,2.687,2.6894,2.7041,2.7122,2.7122,2.7204,2.7267,2.7301,2.7376,2.7415,2.7501,2.7472,2.7505,2.7567,2.7611,2.769,2.7601,2.7711,2.7715,2.7692,2.7846,2.7861,2.7988,2.7798,2.7801,2.7803,0,2.6573,2.668,2.6705,2.6748,2.6835,2.6904,2.6998,2.7089,2.7137,2.7208,2.7288,2.7411,2.7394,2.7448,2.7466,2.7529,2.7637,2.7503,2.7505,2.7526,2.7787,2.78,2.7821,2.7635,2.7639,2.7642,2.778,0,2.6427,2.6515,2.6582,2.6679,2.6738,2.6833,2.6872,2.693,2.6939,2.6973,2.7093,2.7157,2.7252,2.7286,2.7298,2.7429,2.7414,2.7395,2.735,2.745,2.7497,2.7516,2.7277,2.7276,2.7275,2.7274,0,0,2.6248,2.6375,2.64,2.6492,2.6543,2.6543,2.664,2.6691,2.6794,2.683,2.6805,2.6988,2.7042,2.7183,2.7217,2.7256,2.7284,2.7248,2.7402,2.7416,2.743,2.7478,2.7498,2.7273,2.7272,2.7272,2.7272,0,2.6203,2.6255,2.635,2.6403,2.6482,2.6514,2.6537,2.6616,2.6643,2.676,2.6761,2.6837,2.6984,2.7041,2.7089,2.7231,2.7228,2.7257,2.732,2.7392,2.7407,2.7421,2.7471,2.7489,2.7269,2.727,2.727,0,2.608,2.6137,2.6188,2.6305,2.6357,2.6442,2.6403,2.6495,2.6559,2.6558,2.6674,2.6716,2.6795,2.6924,2.6983,2.6962,2.7175,2.7116,2.7123,2.7131,2.7202,2.7221,2.7237,2.7022,2.7021,2.702,0,0,2.6036,2.6118,2.619,2.6298,2.6331,2.638,2.6429,2.6444,2.6515,2.6543,2.6596,2.6666,2.6751,2.6807,2.689,2.7025,2.7044,2.7083,2.7095,2.7105,2.7117,2.7192,2.721,2.7016,2.7016,2.7016,0,0,2.6016,2.6102,2.6099,2.623,2.6295,2.6375,2.644,2.6439,2.6517,2.6511,2.6543,2.6563,2.6684,2.6726,2.6668,2.6875,2.6829,2.6844,2.6843,2.6859,2.687,2.6858,2.6639,0,0,0,0,0,2.599,2.6091,2.6087,2.6115,2.6265,2.6376,2.6396,2.6423,2.6389,2.644,2.6485,2.6478,2.6701,2.665,2.6678,2.6743,2.6965,2.6974,2.6983,2.7014,2.703,2.7043,0,0,0,0,0,0,2.6001,2.6035,2.6085,2.6167,2.6201,2.6373,2.6322,2.6332,2.6385,2.6381,2.647,2.6481,2.6508,2.6638,2.6663,2.6724,2.6631,2.6969,2.6977,2.6984,2.702,2.7032,2.7043,0,0,0,0,0,2.601,2.6037,2.627,2.6166,2.6196,2.6256,2.6318,2.6326,2.6368,2.6437,2.6448,2.6384,2.6509,2.6532,2.6653,2.6711,2.6614,2.6623,2.6974,2.698,2.6985,2.7026,0,0,0,0,0,0,2.6017,2.6046,2.6276,2.6286,2.613,2.6247,2.6266,2.6321,2.6421,2.6433,2.6352,2.6349,2.6511,2.6528,2.6546,2.6706,2.66,2.6609,2.6615,2.6979,2.6983,2.6987,0,0,0,0,0,0,2.6032,2.6055,2.6281,2.6234,2.6239,2.6239,2.6256,2.6363,2.6422,2.6331,2.633,2.635,2.6485,2.6526,2.654,2.6707,2.6589,2.6598,2.6604,2.6608,2.6982,2.6986,0,0,0,0,0,0,2.6042,2.6062,2.6232,2.6236,2.624,2.6355,2.6334,2.6487,2.6379,2.6326,2.6371,2.6367,2.6483,2.6498,2.6536,2.6697,2.6704,2.6589,2.6596,2.66,2.6603,0,0,0,0,0,0,0,2.605,2.5911,2.6216,2.6237,2.624,2.6379,2.6382,2.6385,2.6379,2.6375,2.6372,2.6368,2.6538,2.6548,2.6558,2.6689,0,0,2.6589,2.6593,0,0,0,0,0,0,0,0,2.5903,2.5909,2.6217,2.6219,2.6221,2.638,2.6382,2.6384,2.6378,2.6375,2.6372,2.637,2.6541,2.6549,2.6557,0,0,0,0,0,0,0,0,0,0,0,0,0,0,0,2.6217,2.6219,0,2.638,2.6382,2.6384,2.6378,2.6375,2.6373,2.6371,2.6543,2.6549,2.6556,0,0,0,0,0,0,0,0,0,0,0,0,0,0,0,0,0,0,0,0,0,0,0,0,0,0,0,0,0,0,0,0,0,0,0,0,0,0,0,0,0,0,0,0,0,0,0,0,0,0,0,0,0,0,0,0,0,0,0,0,0,0,0,0,0,0,0,0,0]}],[{"header":{"parameterUnit":"kt","parameterCategory":2,"dx":1,"dy":1,"la1":30.253999710083008,"la2":30.299108505249023,"lo1":-89.0895004272461,"lo2":-89.04439544677734,"nx":28,"ny":28,"refTime":"2022-10-12T21:00:00:Z","depth":0,"parameterNumber":2,"parameterNumberName":"V-component_of_WINDS"},"data":[-0.122,-0.1141,-0.1134,-0.1041,-0.1019,-0.0954,-0.0929,-0.0896,-0.0867,-0.0791,-0.0746,-0.073,-0.07,-0.0645,-0.0596,-0.0591,-0.0571,-0.055,-0.0547,-0.0647,-0.066,-0.0673,-0.0691,-0.0546,-0.0546,-0.0446,-0.0445,-0.0444,-0.1299,-0.1275,-0.1223,-0.1167,-0.1123,-0.1139,-0.1097,-0.1059,-0.1001,-0.0965,-0.0919,-0.0851,-0.0797,-0.0772,-0.0719,-0.0684,-0.0688,-0.067,-0.0673,-0.0668,-0.0773,-0.0793,-0.0667,-0.0667,-0.0667,-0.0667,-0.0667,-0.0667,-0.144,-0.1393,-0.1354,-0.1297,-0.1267,-0.1229,-0.1183,-0.1164,-0.1114,-0.1055,-0.1055,-0.0989,-0.0952,-0.0882,-0.0857,-0.0807,-0.0825,-0.0803,-0.0797,-0.0792,-0.0788,-0.0937,-0.0797,-0.0797,-0.0798,-0.0798,-0.0798,0,-0.1541,-0.1537,-0.1486,-0.1432,-0.139,-0.1348,-0.1307,-0.1279,-0.1267,-0.1226,-0.1165,-0.1129,-0.1057,-0.1,-0.0947,-0.0925,-0.0937,-0.0936,-0.0921,-0.0921,-0.0929,-0.0925,-0.1099,-0.094,-0.0941,-0.0942,-0.0943,-0.0943,-0.1684,-0.1629,-0.1583,-0.1548,-0.1523,-0.1467,-0.1431,-0.1425,-0.1388,-0.1338,-0.1296,-0.1238,-0.1191,-0.1095,-0.1073,-0.102,-0.1025,-0.0966,-0.1017,-0.102,-0.1026,-0.103,-0.1025,-0.0956,-0.0954,-0.0953,-0.0952,0,-0.1766,-0.1751,-0.1662,-0.1621,-0.161,-0.1553,-0.1518,-0.147,-0.1456,-0.1389,-0.1373,-0.135,-0.1291,-0.1278,-0.1206,-0.1202,-0.1111,-0.1117,-0.1125,-0.1126,-0.1073,-0.1078,-0.0898,-0.0875,-0.1023,-0.1022,-0.1021,0,-0.1882,-0.1809,-0.1792,-0.1741,-0.1661,-0.1655,-0.1576,-0.1556,-0.1521,-0.1468,-0.1479,-0.1429,-0.1419,-0.1368,-0.136,-0.1283,-0.1269,-0.1262,-0.1261,-0.1261,-0.1262,-0.1241,-0.1248,-0.1258,-0.1259,-0.126,-0.1261,0,-0.2012,-0.1916,-0.1833,-0.1809,-0.1757,-0.1718,-0.1695,-0.1656,-0.162,-0.1573,-0.155,-0.1495,-0.1465,-0.1423,-0.1414,-0.1449,-0.1319,-0.1366,-0.1311,-0.1311,-0.1282,-0.1284,-0.1128,-0.1262,-0.1262,-0.1263,-0.1263,0,-0.2104,-0.2054,-0.1935,-0.1893,-0.1868,-0.1813,-0.1758,-0.1707,-0.1665,-0.1657,-0.1619,-0.1624,-0.1553,-0.1602,-0.1506,-0.1555,-0.1525,-0.1511,-0.1507,-0.1499,-0.1553,-0.1468,-0.132,-0.1305,-0.1494,-0.1496,-0.1498,0,-0.2258,-0.2133,-0.2126,-0.2013,-0.1954,-0.197,-0.1909,-0.187,-0.1853,-0.1801,-0.1783,-0.1723,-0.1755,-0.1734,-0.1689,-0.1667,-0.1604,-0.1676,-0.1603,-0.16,-0.1615,-0.1478,-0.1459,-0.1354,-0.1522,-0.152,-0.1518,0,-0.2375,-0.231,-0.229,-0.2262,-0.2208,-0.2158,-0.2087,-0.2026,-0.1992,-0.1946,-0.1887,-0.1801,-0.1823,-0.1788,-0.1785,-0.1738,-0.1647,-0.1767,-0.1766,-0.1747,-0.1532,-0.1516,-0.1498,-0.1656,-0.1653,-0.165,-0.1537,0,-0.2519,-0.2453,-0.2398,-0.2333,-0.2292,-0.2219,-0.2203,-0.2162,-0.2164,-0.2147,-0.2059,-0.2022,-0.1958,-0.1934,-0.1934,-0.183,-0.1845,-0.1868,-0.1913,-0.1823,-0.1786,-0.177,-0.1971,-0.1972,-0.1973,-0.1974,0,0,-0.2671,-0.2575,-0.2569,-0.2499,-0.2463,-0.2479,-0.2403,-0.237,-0.2302,-0.2278,-0.2303,-0.2176,-0.2144,-0.2039,-0.201,-0.1984,-0.1964,-0.1995,-0.1866,-0.1854,-0.1843,-0.1803,-0.1787,-0.1976,-0.1976,-0.1977,-0.1977,0,-0.272,-0.2685,-0.2609,-0.2575,-0.2524,-0.2509,-0.2491,-0.2442,-0.2427,-0.234,-0.2354,-0.2299,-0.2196,-0.2161,-0.213,-0.2008,-0.2021,-0.1989,-0.193,-0.1877,-0.1863,-0.1851,-0.181,-0.1795,-0.1979,-0.1979,-0.1979,0,-0.2833,-0.2797,-0.2758,-0.2676,-0.2642,-0.2579,-0.2623,-0.2553,-0.2507,-0.2526,-0.2438,-0.2415,-0.2365,-0.2268,-0.2223,-0.2244,-0.2074,-0.2123,-0.2116,-0.2111,-0.2058,-0.2042,-0.2028,-0.2217,-0.2218,-0.2218,0,0,-0.2877,-0.2815,-0.2773,-0.2685,-0.2663,-0.2638,-0.2602,-0.26,-0.2554,-0.2536,-0.2506,-0.2461,-0.2402,-0.2363,-0.2305,-0.22,-0.2189,-0.2153,-0.2142,-0.2133,-0.2123,-0.2068,-0.2052,-0.2222,-0.2222,-0.2222,0,0,-0.2898,-0.2846,-0.2855,-0.275,-0.2707,-0.266,-0.2607,-0.2617,-0.2563,-0.2569,-0.2561,-0.2549,-0.2457,-0.2432,-0.248,-0.2321,-0.2366,-0.2354,-0.234,-0.2326,-0.2315,-0.2322,-0.2518,0,0,0,0,0,-0.2939,-0.2853,-0.2862,-0.2842,-0.2737,-0.2655,-0.2642,-0.2633,-0.2666,-0.2624,-0.26,-0.2616,-0.2457,-0.2499,-0.2479,-0.2425,-0.2266,-0.2258,-0.2251,-0.2207,-0.2193,-0.218,0,0,0,0,0,0,-0.2931,-0.2906,-0.2864,-0.2813,-0.279,-0.2658,-0.2712,-0.2707,-0.267,-0.2674,-0.262,-0.2614,-0.2605,-0.2508,-0.249,-0.244,-0.2524,-0.2263,-0.2256,-0.225,-0.2202,-0.219,-0.218,0,0,0,0,0,-0.2924,-0.2904,-0.2738,-0.2814,-0.2794,-0.2762,-0.2715,-0.2711,-0.2682,-0.2644,-0.2639,-0.2679,-0.2604,-0.2588,-0.2498,-0.2448,-0.2537,-0.253,-0.2258,-0.2253,-0.2248,-0.2196,0,0,0,0,0,0,-0.292,-0.2901,-0.2734,-0.2727,-0.2846,-0.2769,-0.2756,-0.2715,-0.2655,-0.2648,-0.2703,-0.2707,-0.2602,-0.259,-0.2578,-0.2452,-0.2547,-0.254,-0.2536,-0.2254,-0.225,-0.2247,0,0,0,0,0,0,-0.2911,-0.2895,-0.273,-0.277,-0.2768,-0.2775,-0.2764,-0.2685,-0.2654,-0.2717,-0.2718,-0.2705,-0.262,-0.2591,-0.2582,-0.2459,-0.2554,-0.2548,-0.2543,-0.254,-0.2251,-0.2248,0,0,0,0,0,0,-0.2904,-0.289,-0.2772,-0.277,-0.2769,-0.2694,-0.2706,-0.2598,-0.2688,-0.2719,-0.2696,-0.2699,-0.262,-0.2611,-0.2584,-0.2465,-0.246,-0.2554,-0.255,-0.2546,-0.2544,0,0,0,0,0,0,0,-0.2899,-0.2995,-0.2773,-0.277,-0.2769,-0.2667,-0.2665,-0.2663,-0.2689,-0.2692,-0.2695,-0.2698,-0.2591,-0.2584,-0.2577,-0.247,0,0,-0.2555,-0.2551,0,0,0,0,0,0,0,0,-0.3001,-0.2996,-0.2772,-0.2771,-0.277,-0.2666,-0.2665,-0.2663,-0.2689,-0.2692,-0.2694,-0.2697,-0.2589,-0.2583,-0.2577,0,0,0,0,0,0,0,0,0,0,0,0,0,0,0,-0.2772,-0.2771,0,-0.2666,-0.2665,-0.2664,-0.269,-0.2692,-0.2694,-0.2696,-0.2587,-0.2583,-0.2578,0,0,0,0,0,0,0,0,0,0,0,0,0,0,0,0,0,0,0,0,0,0,0,0,0,0,0,0,0,0,0,0,0,0,0,0,0,0,0,0,0,0,0,0,0,0,0,0,0,0,0,0,0,0,0,0,0,0,0,0,0,0,0,0,0,0,0,0,0]}]]]